Weather History for Abingdon, VA

Change the Weather History Date:

Sunday, October 2, 2011

  Actual Average (KTRI) Record (KTRI)
Temperature  
Mean Temperature 48 °F 61 °F  
Max Temperature 55 °F 73 °F 85 °F (1986)
Min Temperature 42 °F 48 °F 29 °F (1946)
Degree Days  
Heating Degree Days 16 5  
Month to date heating degree days 10  
Since 1 July heating degree days 63  
Cooling Degree Days 0 1  
Month to date cooling degree days 2  
Year to date cooling degree days 970  
Moisture  
Dew Point 34 °F    
Average Humidity 62    
Maximum Humidity 87    
Minimum Humidity 38    
Precipitation  
Precipitation 0.02 in 0.07 in 1.22 in (1977)
Month to date precipitation 0.14  
Year to date precipitation 32.58  
Snow  
Snow 0.00 in 0.00 in - ()
Month to date snowfall 0.0  
Since 1 July snowfall 0.0  
Since 1 September snowfall 0.0  
Snow Depth -    
Sea Level Pressure  
Sea Level Pressure 30.07 in    
Wind  
Wind Speed 7 mph (NW)    
Max Wind Speed 14 mph    
Max Gust Speed 21 mph    
Visibility 10 miles    
Events Rain    
T = Trace of Precipitation, MM = Missing Value Source: NWS Daily Summary

Daily Weather History Graph

Daily Weather History Graph

Search for Another Location

Airport:

Trip Planner

Search our weather history database for the weather conditions in past years. The results will help you decide how hot, cold, wet, or windy it might be!

Date:

Astronomy

Oct. 02, 2011 Rise Set
Actual Time 7:24 AM EDT 7:10 PM EDT
Civil Twilight 6:58 AM EDT 7:36 PM EDT
Nautical Twilight 6:28 AM EDT 8:06 PM EDT
Astronomical Twilight 5:58 AM EDT 8:36 PM EDT
Moon 1:20 PM EDT (10/2) 11:16 PM EDT (10/2)
Length of Visible Light 12h 38m
Length of Day
11h 46m
Waxing Crescent, 34% of the Moon is Illuminated
Oct 2
Waxing Crescent
Oct 3
First Quarter
Oct 11
Full
Oct 19
Last Quarter
Oct 26
New

Hourly Weather History & Observations

Time (EDT) Temp. Windchill Dew Point Humidity Pressure Visibility Wind Dir Wind Speed Gust Speed Precip Events Conditions
12:15 AM 44.6 °F 40.7 °F 41.0 °F 87% 30.08 in 10.0 mi NNW 6.9 mph 16.1 mph N/A   Overcast
12:35 AM 44.6 °F 40.7 °F 41.0 °F 87% 30.07 in 10.0 mi NNW 6.9 mph - N/A Rain Light Rain
12:55 AM 44.6 °F 42.2 °F 41.0 °F 87% 30.06 in 10.0 mi WNW 4.6 mph - N/A Rain Light Rain
1:15 AM 44.6 °F 40.2 °F 41.0 °F 87% 30.06 in 7.0 mi WNW 8.1 mph - 0.01 in Rain Rain
2:15 AM 44.6 °F 41.4 °F 41.0 °F 87% 30.06 in 5.0 mi NNW 5.8 mph - N/A   Drizzle
2:35 AM 44.6 °F 42.2 °F 41.0 °F 87% 30.05 in 10.0 mi NNW 4.6 mph - N/A Rain Rain
2:55 AM 44.6 °F - 41.0 °F 87% 30.06 in 7.0 mi Calm Calm - N/A   Drizzle
3:15 AM 44.6 °F 40.2 °F 37.4 °F 76% 30.05 in 10.0 mi NW 8.1 mph - 0.01 in   Overcast
3:35 AM 44.6 °F 41.4 °F 37.4 °F 76% 30.05 in 10.0 mi NW 5.8 mph - 0.01 in   Overcast
3:55 AM 44.6 °F 42.2 °F 35.6 °F 71% 30.05 in 10.0 mi NNW 4.6 mph - 0.01 in   Overcast
4:15 AM 44.6 °F 40.7 °F 35.6 °F 71% 30.05 in 10.0 mi North 6.9 mph - N/A   Overcast
4:35 AM 44.6 °F 40.7 °F 33.8 °F 66% 30.05 in 10.0 mi NW 6.9 mph - N/A   Overcast
4:55 AM 42.8 °F 38.0 °F 33.8 °F 70% 30.05 in 10.0 mi NW 8.1 mph - N/A   Overcast
5:15 AM 44.6 °F 40.7 °F 35.6 °F 71% 30.06 in 10.0 mi NW 6.9 mph - N/A   Overcast
5:35 AM 44.6 °F 40.2 °F 35.6 °F 71% 30.06 in 10.0 mi NW 8.1 mph - N/A   Overcast
5:55 AM 44.6 °F 41.4 °F 33.8 °F 66% 30.06 in 10.0 mi NW 5.8 mph - N/A   Overcast
6:15 AM 44.6 °F 39.7 °F 33.8 °F 66% 30.07 in 10.0 mi NW 9.2 mph - N/A   Overcast
6:35 AM 42.8 °F 38.0 °F 33.8 °F 70% 30.07 in 10.0 mi NW 8.1 mph - N/A   Overcast
6:55 AM 42.8 °F 39.3 °F 33.8 °F 70% 30.08 in 10.0 mi WNW 5.8 mph - N/A   Overcast
7:15 AM 42.8 °F 39.3 °F 33.8 °F 70% 30.08 in 10.0 mi NW 5.8 mph - N/A   Overcast
7:35 AM 42.8 °F 38.0 °F 33.8 °F 70% 30.08 in 10.0 mi NW 8.1 mph - N/A   Overcast
7:55 AM 42.8 °F 38.0 °F 33.8 °F 70% 30.08 in 10.0 mi NW 8.1 mph - N/A   Overcast
8:15 AM 42.8 °F 39.3 °F 33.8 °F 70% 30.08 in 10.0 mi NNW 5.8 mph - N/A   Mostly Cloudy
8:35 AM 42.8 °F 38.6 °F 33.8 °F 70% 30.08 in 10.0 mi NW 6.9 mph - N/A   Mostly Cloudy
8:55 AM 42.8 °F 38.6 °F 33.8 °F 70% 30.09 in 10.0 mi NNW 6.9 mph - N/A   Scattered Clouds
9:15 AM 44.6 °F 42.2 °F 33.8 °F 66% 30.09 in 10.0 mi NNW 4.6 mph 16.1 mph N/A   Mostly Cloudy
9:35 AM 44.6 °F 40.7 °F 33.8 °F 66% 30.09 in 10.0 mi NNW 6.9 mph 16.1 mph N/A   Overcast
9:55 AM 44.6 °F 40.2 °F 33.8 °F 66% 30.10 in 10.0 mi NNW 8.1 mph - N/A   Overcast
10:15 AM 44.6 °F 40.2 °F 33.8 °F 66% 30.10 in 10.0 mi North 8.1 mph 16.1 mph N/A   Overcast
10:35 AM 44.6 °F 42.2 °F 33.8 °F 66% 30.11 in 10.0 mi North 4.6 mph - N/A   Overcast
10:55 AM 44.6 °F 40.2 °F 33.8 °F 66% 30.11 in 10.0 mi NNW 8.1 mph - N/A   Overcast
11:15 AM 46.4 °F 42.4 °F 32.0 °F 57% 30.10 in 10.0 mi North 8.1 mph 16.1 mph N/A   Mostly Cloudy
11:35 AM 46.4 °F 41.9 °F 32.0 °F 57% 30.11 in 10.0 mi NW 9.2 mph 18.4 mph N/A   Mostly Cloudy
11:55 AM 46.4 °F 42.4 °F 32.0 °F 57% 30.10 in 10.0 mi NW 8.1 mph - N/A   Overcast
12:15 PM 48.2 °F - 32.0 °F 54% 30.10 in 10.0 mi North 8.1 mph - N/A   Mostly Cloudy
12:35 PM 48.2 °F - 32.0 °F 54% 30.10 in 10.0 mi North 11.5 mph 17.3 mph N/A   Mostly Cloudy
12:55 PM 50.0 °F - 32.0 °F 50% 30.09 in 10.0 mi North 13.8 mph 18.4 mph N/A   Mostly Cloudy
1:15 PM 50.0 °F - 32.0 °F 50% 30.08 in 10.0 mi NW 10.4 mph - N/A   Mostly Cloudy
1:35 PM 50.0 °F - 32.0 °F 50% 30.08 in 10.0 mi NNW 10.4 mph 16.1 mph N/A   Mostly Cloudy
2:15 PM 51.8 °F - 32.0 °F 47% 30.06 in 10.0 mi NW 10.4 mph - N/A   Scattered Clouds
2:55 PM 53.6 °F - 32.0 °F 44% 30.06 in 10.0 mi NNW 11.5 mph 17.3 mph N/A   Scattered Clouds
3:15 PM 53.6 °F - 32.0 °F 44% 30.05 in 10.0 mi NW 12.7 mph 16.1 mph N/A   Scattered Clouds
3:35 PM 55.4 °F - 32.0 °F 41% 30.05 in 10.0 mi WNW 10.4 mph - N/A   Scattered Clouds
3:55 PM 55.4 °F - 32.0 °F 41% 30.04 in 10.0 mi NNW 12.7 mph 18.4 mph N/A   Scattered Clouds
4:15 PM 55.4 °F - 32.0 °F 41% 30.04 in 10.0 mi NNW 9.2 mph - N/A   Clear
4:35 PM 55.4 °F - 30.2 °F 38% 30.04 in 10.0 mi North 8.1 mph - N/A   Clear
4:55 PM 55.4 °F - 30.2 °F 38% 30.04 in 10.0 mi North 11.5 mph 17.3 mph N/A   Clear
5:35 PM 55.4 °F - 30.2 °F 38% 30.05 in 10.0 mi NW 9.2 mph 20.7 mph N/A   Clear
6:15 PM 53.6 °F - 30.2 °F 41% 30.05 in 10.0 mi NNW 10.4 mph 17.3 mph N/A   Clear
6:35 PM 53.6 °F - 32.0 °F 44% 30.06 in 10.0 mi NNW 6.9 mph - N/A   Scattered Clouds
6:55 PM 51.8 °F - 32.0 °F 47% 30.06 in 10.0 mi NW 5.8 mph - N/A   Scattered Clouds
7:15 PM 51.8 °F - 32.0 °F 47% 30.06 in 10.0 mi NW 6.9 mph - N/A   Scattered Clouds
7:55 PM 50.0 °F - 32.0 °F 50% 30.07 in 10.0 mi WNW 3.5 mph - N/A   Scattered Clouds
8:15 PM 48.2 °F - 32.0 °F 54% 30.07 in 10.0 mi West 4.6 mph - N/A   Scattered Clouds
8:35 PM 46.4 °F 44.3 °F 33.8 °F 62% 30.07 in 10.0 mi West 4.6 mph - N/A   Scattered Clouds
8:55 PM 46.4 °F 45.2 °F 33.8 °F 62% 30.08 in 10.0 mi West 3.5 mph - N/A   Clear
9:15 PM 46.4 °F 44.3 °F 33.8 °F 62% 30.09 in 10.0 mi West 4.6 mph - N/A   Clear
9:35 PM 44.6 °F - 33.8 °F 66% 30.08 in 10.0 mi Calm Calm - N/A   Clear
9:55 PM 42.8 °F 41.1 °F 33.8 °F 70% 30.09 in 10.0 mi NW 3.5 mph - N/A   Clear
10:15 PM 44.6 °F 43.1 °F 33.8 °F 66% 30.09 in 10.0 mi WNW 3.5 mph - N/A   Clear
10:35 PM 44.6 °F - 33.8 °F 66% 30.09 in 10.0 mi Calm Calm - N/A   Clear
11:15 PM 44.6 °F 42.2 °F 33.8 °F 66% 30.09 in 10.0 mi West 4.6 mph - N/A   Overcast
11:35 PM 44.6 °F - 33.8 °F 66% 30.09 in 10.0 mi Calm Calm - N/A   Overcast
11:55 PM 44.6 °F - 35.6 °F 71% 30.08 in 10.0 mi Calm Calm - N/A   Overcast